Flag for USA

Past Weather in 34°51'16"N, 82°19'45"W, USA — Yesterday and Last 2 Weeks

Now
78 °F

Sunny.


Feels Like: 80 °F
Forecast: 90 / 70 °F
Wind: 5 mph from North

Location: Greenville Downtown Airport

Current Time: Jul 13, 2020 at 8:55:25 am

Latest Report: Jul 13, 2020 at 7:53 am


Visibility: 10 mi

Pressure: 29.85 "Hg

Humidity: 66%

Dew Point: 66 °F

Location of 34°51'16"N, 82°19'45"WLocation

Past Weather in 34°51'16"N, 82°19'45"W — Graph

°F

34°51'16"N, 82°19'45"W Temperature Yesterday

Maximum temperature yesterday: 91 °F (at 4:53 pm)
Minimum temperature yesterday: 72 °F (at 6:53 am)
Average temperature yesterday: 83 °F

High & Low Weather Summary for the Past Weeks

 TemperatureHumidityPressure
High93 °F (Jun 29, 4:55 pm)97% (Jun 30, 1:53 am)30.10 "Hg (Jun 30, 1:53 am)
Low71 °F (Jun 28, 6:43 am)31% (Jul 2, 5:53 pm)29.77 "Hg (Jul 12, 6:53 pm)
Average81 °F71%29.94 "Hg
* Reported Jun 28 6:43 am — Jul 13 6:53 am, 34°51'16"N, 82°19'45"W. Weather by CustomWeather, © 2020

Note: Actual official high and low records may vary slightly from our data, if they occured in-between our weather recording intervals... More about our weather records

34°51'16"N, 82°19'45"W Weather History for the Previous 24 Hours

Scroll right to see more
 ConditionsComfort  
Time TempWeatherWind HumidityBarometerVisibility
6:53 am
Mon, Jul 13
75 °FSunny.5 mph69%29.83 "Hg10 mi
5:53 am74 °FClear.9 mph74%29.81 "Hg10 mi
4:53 am74 °FPassing clouds.3 mph85%29.80 "Hg10 mi
3:53 am76 °FClear.No wind80%29.80 "Hg10 mi
2:53 am76 °FClear.No wind80%29.82 "Hg10 mi
1:53 am79 °FPassing clouds.No wind72%29.82 "Hg10 mi
12:53 am81 °FOvercast.5 mph67%29.83 "Hg10 mi
11:53 pm
Sun, Jul 12
80 °FClear.3 mph69%29.83 "Hg10 mi
10:53 pm81 °FClear.5 mph67%29.82 "Hg10 mi
9:53 pm83 °FClear.7 mph63%29.81 "Hg10 mi
8:53 pm85 °FClear.6 mph55%29.80 "Hg10 mi
7:53 pm86 °FSunny.7 mph53%29.79 "Hg10 mi
6:53 pm87 °FSunny.8 mph50%29.77 "Hg10 mi
5:53 pm90 °FSunny.7 mph43%29.77 "Hg10 mi
4:53 pm91 °FSunny.10 mph39%29.80 "Hg10 mi
3:53 pm90 °FSunny.10 mph41%29.80 "Hg10 mi
2:53 pm90 °FSunny.5 mph41%29.83 "Hg10 mi
1:53 pm90 °FSunny.8 mph41%29.85 "Hg10 mi
12:53 pm89 °FScattered clouds.9 mph41%29.87 "Hg10 mi
11:53 am88 °FSunny.6 mph39%29.86 "Hg10 mi
10:53 am88 °FSunny.7 mph42%29.88 "Hg10 mi
9:53 am85 °FSunny.6 mph46%29.88 "Hg10 mi
8:53 am80 °FSunny.3 mph58%29.88 "Hg10 mi
Weather by CustomWeather, © 2020

See weather overview